This is the latest recevied weather packets stored in our database for station/object W0WC. If no packets are shown the sender has not sent any weather packets the latest 10 day(s).
| Time | Temp. | Humidity | Pressure | Rain* | Wind** | Luminosity | Snow |
|---|---|---|---|---|---|---|---|
| 1778027032 | 8.33° C | 87% | 1011.4 hPa | 0 mm | - | 8 W/m² | - |
| 1778026727 | 8.33° C | 87% | 1011.4 hPa | 0 mm | - | 9 W/m² | - |
| 1778026425 | 8.33° C | 88% | 1011.5 hPa | 0 mm | - | 13 W/m² | - |
| 1778026122 | 8.33° C | 88% | 1011.3 hPa | 0 mm | - | 15 W/m² | - |
| 1778025820 | 8.33° C | 88% | 1011.4 hPa | 0 mm | - | 16 W/m² | - |
| 1778025516 | 8.33° C | 87% | 1011.1 hPa | 0 mm | - | 22 W/m² | - |
| 1778025213 | 8.33° C | 88% | 1011.3 hPa | 0 mm | - | 24 W/m² | - |
| 1778024910 | 8.33° C | 88% | 1011.5 hPa | 0 mm | - | 19 W/m² | - |
| 1778024608 | 8.33° C | 87% | 1011.4 hPa | 0 mm | - | 19 W/m² | - |
| 1778024305 | 8.33° C | 86% | 1011.1 hPa | 0 mm | - | 20 W/m² | - |
| 1778024003 | 8.89° C | 85% | 1011 hPa | 0 mm | - | 19 W/m² | - |
| 1778023700 | 8.89° C | 83% | 1010.7 hPa | 0 mm | - | 25 W/m² | - |
| 1778023397 | 8.89° C | 81% | 1010.9 hPa | 0 mm | - | 20 W/m² | - |
| 1778023094 | 9.44° C | 80% | 1010.9 hPa | 0 mm | - | 16 W/m² | - |
| 1778022792 | 9.44° C | 79% | 1010.6 hPa | 0 mm | - | 13 W/m² | - |
| 1778022490 | 9.44° C | 78% | 1010.7 hPa | 0 mm | - | 18 W/m² | - |
| 1778022187 | 9.44° C | 78% | 1010.6 hPa | 0 mm | - | 24 W/m² | - |
| 1778021883 | 9.44° C | 78% | 1010.3 hPa | 0 mm | - | 40 W/m² | - |
| 1778021581 | 9.44° C | 78% | 1010.4 hPa | 0 mm | - | 46 W/m² | - |
| 1778021275 | 9.44° C | 77% | 1010.5 hPa | 0 mm | - | 39 W/m² | - |
| 1778020974 | 9.44° C | 77% | 1010.3 hPa | 0 mm | - | 41 W/m² | - |
| 1778020671 | 9.44° C | 76% | 1010.4 hPa | 0 mm | - | 48 W/m² | - |
| 1778020367 | 9.44° C | 76% | 1010.4 hPa | 0 mm | - | 52 W/m² | - |
| 1778020063 | 9.44° C | 77% | 1010.3 hPa | 0 mm | - | 75 W/m² | - |
| 1778019760 | 9.44° C | 77% | 1010.2 hPa | 0 mm | - | 65 W/m² | - |
* Rain latest hour (hover to see other rain measurements)
** Current wind speed in m/s (hover to see current wind gust speed)